Location: Unspecified
(0.0000°N, 0.0000°E)
Time: 06:41:05
(UTC+00:00)

Vanguard 1 Rocket - All Passes

Search period start: 28 May 2017 00:00
Search period end: 07 June 2017 00:00
Orbit: 651 x 4226 km, 34.3° (Epoch: 26 May)

Date Brightness Start Highest point End Pass type
(mag) Time Alt. Az. Time Alt. Az. Time Alt. Az.
28 May - 00:25:41 10° NNW 00:32:00 13° N 00:37:00 10° NNE visible
28 May - 02:55:18 10° NNW 03:03:14 27° NNE 03:08:17 10° E visible
28 May - 05:23:26 10° WNW 05:29:10 43° SW 05:33:25 10° SSE visible
28 May - 12:50:03 10° S 12:57:55 18° SE 13:09:08 10° ESE daylight
28 May - 15:12:19 10° SW 15:27:51 62° SE 15:53:08 10° ENE daylight
28 May - 17:39:49 10° WSW 18:00:42 62° NW 18:26:22 10° NE visible
28 May - 20:17:04 10° WNW 20:37:27 28° NNW 20:55:09 10° NNE visible
28 May - 23:06:43 10° NW 23:16:24 15° N 23:23:55 10° NNE visible
29 May - 01:42:13 10° NNW 01:50:31 20° NNE 01:56:06 10° ENE visible
29 May - 04:10:31 10° NW 04:18:28 76° NE 04:23:19 10° ESE visible
29 May - 14:01:51 10° SSW 14:14:16 41° SE 14:35:10 10° ENE daylight
29 May - 16:26:55 10° WSW 16:45:09 82° NW 17:11:59 10° NE daylight
29 May - 18:58:58 10° W 19:20:26 39° NNW 19:42:24 10° NNE visible
29 May - 21:44:38 10° NW 21:59:30 18° NNW 22:11:11 10° NNE visible
30 May - 00:27:41 10° NNW 00:36:39 17° N 00:43:03 10° NE visible
30 May - 02:57:34 10° NW 03:07:03 40° NNE 03:12:31 10° E visible
30 May - 05:27:24 10° W 05:32:20 25° SW 05:36:09 10° SSE visible
30 May - 12:52:24 10° S 13:01:18 24° SE 13:14:59 10° E daylight
30 May - 15:15:17 10° SW 15:30:34 75° SE 15:56:18 10° ENE daylight
30 May - 17:43:39 10° WSW 18:03:54 52° NNW 18:28:56 10° NE visible
30 May - 20:22:52 10° WNW 20:41:53 24° NNW 20:58:22 10° NNE visible
30 May - 23:10:32 10° NNW 23:21:23 16° N 23:29:27 10° NE visible
31 May - 01:44:08 10° NNW 01:54:38 27° NNE 02:00:58 10° ENE visible
31 May - 04:13:40 10° WNW 04:21:46 67° SW 04:26:39 10° SE visible
31 May - 11:46:35 10° SSE 11:48:27 10° SE 11:50:29 10° SE daylight
31 May - 14:04:38 10° SSW 14:17:04 51° SE 14:39:05 10° ENE daylight
31 May - 16:30:20 10° WSW 16:48:06 69° NW 17:14:35 10° NE daylight
31 May - 19:03:52 10° W 19:24:20 33° NNW 19:45:12 10° NNE visible
31 May - 21:50:16 10° NW 22:04:36 18° N 22:15:44 10° NNE visible
01 Jun - 00:29:44 10° NNW 00:41:07 22° NNE 00:48:30 10° ENE visible
01 Jun - 03:00:07 10° NW 03:10:40 61° NNE 03:16:22 10° ESE visible
01 Jun - 05:32:05 10° WSW 05:35:30 15° SW 05:38:22 10° S visible
01 Jun - 12:54:56 10° SSW 13:04:23 30° SE 13:20:05 10° E daylight
01 Jun - 15:18:25 10° SW 15:33:22 88° SE 15:59:11 10° NE daylight
01 Jun - 17:47:49 10° W 18:07:22 44° NNW 18:31:29 10° NE visible
01 Jun - 20:28:51 10° WNW 20:46:43 22° NNW 21:02:03 10° NNE visible
01 Jun - 23:13:34 10° NNW 23:26:13 19° N 23:35:04 10° NE visible
02 Jun - 01:46:18 10° NW 01:58:34 38° NNE 02:05:20 10° E visible
02 Jun - 04:17:10 10° WNW 04:24:54 42° SW 04:29:43 10° SSE visible
02 Jun - 11:46:54 10° S 11:52:01 14° SE 11:58:44 10° ESE daylight
02 Jun - 14:07:33 10° SW 14:19:49 63° SE 14:42:33 10° ENE daylight
02 Jun - 16:34:00 10° WSW 16:51:18 58° NNW 17:17:05 10° NE daylight
02 Jun - 19:09:12 10° WNW 19:28:39 28° NNW 19:48:15 10° NNE visible
02 Jun - 21:55:02 10° NW 22:09:44 19° N 22:20:52 10° NE visible
03 Jun - 00:31:49 10° NNW 00:45:22 28° NNE 00:53:26 10° ENE visible
03 Jun - 03:02:57 10° NW 03:14:03 90° NNE 03:19:54 10° SE visible
03 Jun - 12:57:36 10° SSW 13:07:17 38° SE 13:24:31 10° ENE daylight
03 Jun - 15:21:44 10° WSW 15:36:20 78° NW 16:01:50 10° NE daylight
03 Jun - 17:52:22 10° W 18:11:11 37° NNW 18:34:08 10° NE visible
03 Jun - 20:34:40 10° NW 20:51:51 20° N 21:06:20 10° NE visible
03 Jun - 23:16:11 10° NNW 23:30:51 23° NNE 23:40:27 10° ENE visible
04 Jun - 01:48:39 10° NW 02:02:18 54° NNE 02:09:19 10° ESE visible
04 Jun - 04:21:08 10° W 04:27:56 27° SW 04:32:29 10° SSE visible
04 Jun - 11:48:49 10° S 11:55:17 20° SE 12:04:52 10° E daylight
04 Jun - 14:10:37 10° SW 14:22:38 77° SE 14:45:39 10° ENE daylight
04 Jun - 16:37:57 10° W 16:54:45 48° NNW 17:19:31 10° NE daylight
04 Jun - 19:14:51 10° WNW 19:33:22 25° NNW 19:51:42 10° NNE visible
04 Jun - 21:58:55 10° NW 22:14:47 21° N 22:26:19 10° NE visible
05 Jun - 00:33:57 10° NW 00:49:24 37° NNE 00:57:55 10° E visible
05 Jun - 03:06:04 10° WNW 03:17:13 63° SW 03:23:10 10° SE visible
05 Jun - 13:00:25 10° SSW 13:10:06 49° SE 13:28:25 10° ENE daylight
05 Jun - 15:25:17 10° WSW 15:39:31 64° NNW 16:04:19 10° NE daylight
05 Jun - 17:57:20 10° WNW 18:15:23 31° NNW 18:36:57 10° NE visible
05 Jun - 20:39:57 10° NW 20:57:06 20° N 21:11:13 10° NE visible
05 Jun - 23:18:32 10° NW 23:35:15 29° NNE 23:45:28 10° ENE visible
06 Jun - 01:51:12 10° NW 02:05:46 74° NE 02:13:00 10° ESE visible
06 Jun - 04:25:45 10° W 04:30:58 18° SW 04:34:49 10° S visible
06 Jun - 11:51:10 10° S 11:58:20 26° SE 12:10:01 10° E daylight
06 Jun - 14:13:52 10° SW 14:25:35 88° NW 14:48:27 10° NE daylight
06 Jun - 16:42:15 10° W 16:58:31 40° NNW 17:21:59 10° NE daylight
06 Jun - 19:20:35 10° NW 19:38:26 22° N 19:55:42 10° NE visible
06 Jun - 22:02:06 10° NW 22:19:36 24° NNE 22:31:42 10° ENE visible
